Location: Unspecified
(0.0000°N, 0.0000°E)
Time: 11:58:07
(UTC+01:00)

SWIFT - Visible Passes

Search period start: 17 January 2017 00:00
Search period end: 27 January 2017 00:00
Orbit: 548 x 564 km, 20.6° (Epoch: 16 January)

Date Brightness Start Highest point End Pass type
(mag) Time Alt. Az. Time Alt. Az. Time Alt. Az.
19 Jan 4.8 20:16:04 10° S 20:17:50 12° SSE 20:19:36 10° SE visible
20 Jan 4.6 20:10:12 10° SSW 20:12:51 16° SSE 20:15:26 10° SE visible
20 Jan 5.5 21:50:49 10° SW 21:51:07 12° SW 21:51:07 12° SW visible
21 Jan 4.2 20:04:35 10° SSW 20:07:50 21° SSE 20:10:36 12° ESE visible
21 Jan 5.3 21:45:37 10° WSW 21:46:17 14° WSW 21:46:17 14° WSW visible
22 Jan 3.8 19:59:07 10° SW 20:02:48 27° SSE 20:05:47 14° ESE visible
22 Jan 5.2 21:40:32 10° WSW 21:41:28 16° WSW 21:41:28 16° WSW visible
23 Jan 4.8 06:17:06 10° N 06:18:02 11° NNE 06:18:58 10° NNE visible
23 Jan 3.3 19:53:45 10° SW 19:57:44 37° SSE 20:01:00 14° E visible
23 Jan 5.0 21:35:32 10° W 21:36:41 18° W 21:36:41 18° W visible
24 Jan 4.6 06:10:51 10° NNW 06:13:04 14° NNE 06:15:17 10° NE visible
24 Jan 2.8 19:48:29 10° SW 19:52:39 53° SSE 19:56:15 14° E visible
24 Jan 4.9 21:30:40 10° W 21:31:56 18° W 21:31:56 18° W visible
25 Jan 4.3 06:05:57 13° NNW 06:08:04 18° NNE 06:11:00 10° ENE visible
25 Jan 2.4 19:43:18 10° WSW 19:47:34 77° SSE 19:51:30 12° ENE visible
25 Jan 4.9 21:25:55 10° W 21:27:11 17° WNW 21:27:11 17° WNW visible
26 Jan 3.9 06:01:12 18° NNW 06:03:02 24° NNE 06:06:29 10° ENE visible
26 Jan 2.4 19:38:13 10° WSW 19:42:29 74° NNW 19:46:44 10° ENE visible
26 Jan 4.9 21:21:19 10° WNW 21:22:27 15° NW 21:22:27 15° NW visible
